Regional Weather Roundup
Issued by NWS

Home | Current Version | Previous Version | Graphics & Text | Print | Product List | Glossary On
Versions: 1 2 3 4 5 6 7 8 9 10 11 12 13 14 15 16 17 18 19 20 21 22 23 24 25 26 27 28 29 30 31 32 33 34 35 36 37 38 39 40 41 42 43 44 45 46 47 48 49 50
000
ASUS43 KLSX 220207
RWRMO

WEATHER SUMMARY FOR MISSOURI
NATIONAL WEATHER SERVICE SPRINGFIELD MO
900 PM CDT THU MAY 21 2015

NOTE: "FAIR" INDICATES FEW OR NO CLOUDS BELOW 12,000 FEET WITH NO
       SIGNIFICANT WEATHER AND/OR OBSTRUCTIONS TO VISIBILITY.
       CURRENT SKY AND/OR WEATHER CONDITIONS ARE NOT AVAILABLE FOR
       CHILLICOTHE AND FARMINGTON.

MOZ001>031-035>038-043-044-053-054-220300-
...NORTHERN AND WESTERN MISSOURI...

CITY           SKY/WX    TMP DP  RH WIND       PRES   REMARKS
KANSAS CTY INT PTCLDY    61  44  53 SW5       30.19S
KANSAS C DTWN  CLEAR     64  41  42 CALM      30.19R
LEE`S SUMMIT   CLEAR     59  42  53 SW3       30.20R
ST JOSEPH      CLEAR     61  49  64 SW3       30.18S
CHILLICOTHE      N/A     60  48  64 CALM      30.17S
KIRKSVILLE     CLEAR     60  48  64 SW6       30.14S

$$
MOZ066>068-077>081-088>096-101>105-220300-
...SOUTHWEST MISSOURI...

CITY           SKY/WX    TMP DP  RH WIND       PRES   REMARKS
SPRINGFIELD    CLEAR     57  44  62 CALM      30.20S
JOPLIN         MOCLDY    53  48  83 NE3       30.20F

$$
MOZ032>034-039>042-045>050-055>058-069>072-220300-
...CENTRAL MISSOURI...

CITY           SKY/WX    TMP DP  RH WIND       PRES   REMARKS
COLUMBIA       CLEAR     56  47  71 SW6       30.18S
JEFFERSON CITY CLEAR     59  45  59 CALM      30.18S
ROLLA          CLEAR     49  43  80 SW5       30.19R
SEDALIA        CLEAR     59  45  59 SW5       30.20S
WHITEMAN AFB   CLEAR     56  48  73 S5        30.19R
OSAGE BEACH    CLEAR     52  46  82 CALM      30.21R

$$
MOZ051-052-059>065-220300-
...EAST CENTRAL MISSOURI...

CITY           SKY/WX    TMP DP  RH WIND       PRES   REMARKS
ST LOUIS INTL  PTCLDY    61  42  49 SW5       30.18R
SPIRIT OF STL  CLEAR     53  46  77 CALM      30.17R
ST CHARLES     PTCLDY    58  46  64 CALM      30.16S

$$
MOZ072>076-082>087-097>100-106>115-220300-
...SOUTH CENTRAL AND SOUTHEAST MISSOURI...

CITY           SKY/WX    TMP DP  RH WIND       PRES   REMARKS
CAPE GIRARDEAU PTCLDY    52  50  93 CALM      30.21R
FARMINGTON     CLEAR     52  43  71 CALM      30.24S
POPLAR BLUFF   PTCLDY    53  48  83 CALM      30.20S
WEST PLAINS    CLEAR     52  45  77 CALM      30.22R

$$



USA.gov is the U.S. government's official web portal to all federal, state and local government web resources and services.